TimeEDT,TemperatureF,Dew PointF,Humidity,Sea Level PressureIn,VisibilityMPH,Wind Direction,Wind SpeedMPH,Gust SpeedMPH,PrecipitationIn,Events,Conditions,WindDirDegrees,DateUTC
12:54 AM,62.1,55.9,80,30.02,10.0,South,3.5,-,N/A,,Mostly Cloudy,170,2013-09-21 04:54:00
1:54 AM,61.0,55.9,83,30.01,10.0,Calm,Calm,-,N/A,,Mostly Cloudy,0,2013-09-21 05:54:00
2:54 AM,61.0,55.0,81,29.99,10.0,SW,4.6,-,N/A,,Mostly Cloudy,220,2013-09-21 06:54:00
3:54 AM,60.1,55.0,83,29.98,10.0,Calm,Calm,-,N/A,,Mostly Cloudy,0,2013-09-21 07:54:00
4:54 AM,59.0,55.0,87,29.97,10.0,Calm,Calm,-,N/A,,Mostly Cloudy,0,2013-09-21 08:54:00
5:54 AM,57.9,55.0,90,29.97,10.0,SE,6.9,-,N/A,,Mostly Cloudy,130,2013-09-21 09:54:00
6:31 AM,57.2,55.4,94,29.97,9.0,ESE,3.5,-,N/A,,Scattered Clouds,120,2013-09-21 10:31:00
6:54 AM,57.0,54.0,89,29.97,8.0,SSE,3.5,-,N/A,,Scattered Clouds,150,2013-09-21 10:54:00
7:06 AM,57.2,55.4,94,29.98,8.0,Calm,Calm,-,N/A,,Mostly Cloudy,0,2013-09-21 11:06:00
7:27 AM,59.0,55.4,88,29.96,8.0,Calm,Calm,-,N/A,,Mostly Cloudy,0,2013-09-21 11:27:00
7:36 AM,59.0,55.4,88,29.96,4.0,Calm,Calm,-,N/A,,Mostly Cloudy,0,2013-09-21 11:36:00
7:43 AM,59.0,55.4,88,29.96,2.0,Calm,Calm,-,N/A,,Mostly Cloudy,0,2013-09-21 11:43:00
7:54 AM,59.0,57.0,93,29.96,2.0,SE,3.5,-,N/A,,Mostly Cloudy,140,2013-09-21 11:54:00
8:03 AM,59.0,57.2,94,29.95,0.5,SE,3.5,-,N/A,Fog,Fog,140,2013-09-21 12:03:00
8:13 AM,59.0,57.2,94,29.95,0.2,Calm,Calm,-,N/A,Fog,Fog,0,2013-09-21 12:13:00
8:18 AM,59.0,57.2,94,29.95,0.2,ESE,3.5,-,N/A,Fog,Fog,120,2013-09-21 12:18:00
8:37 AM,60.8,57.2,88,29.93,0.2,SE,3.5,-,N/A,Fog,Fog,130,2013-09-21 12:37:00
8:54 AM,61.0,59.0,93,29.93,0.2,ESE,3.5,-,N/A,Fog,Fog,110,2013-09-21 12:54:00
9:03 AM,60.8,59.0,94,29.92,0.5,East,3.5,-,N/A,Fog,Fog,100,2013-09-21 13:03:00
9:10 AM,62.6,60.8,94,29.93,0.5,ESE,3.5,-,N/A,Fog,Fog,120,2013-09-21 13:10:00
9:15 AM,60.8,60.8,100,29.92,1.0,Calm,Calm,-,N/A,,Mostly Cloudy,0,2013-09-21 13:15:00
9:20 AM,62.6,60.8,94,29.92,2.0,Calm,Calm,-,N/A,,Mostly Cloudy,0,2013-09-21 13:20:00
9:23 AM,62.6,60.8,94,29.92,5.0,Calm,Calm,-,N/A,,Mostly Cloudy,0,2013-09-21 13:23:00
9:29 AM,62.6,60.8,94,29.92,7.0,Calm,Calm,-,N/A,,Mostly Cloudy,0,2013-09-21 13:29:00
9:42 AM,64.4,60.8,88,29.92,10.0,Calm,Calm,-,N/A,,Mostly Cloudy,0,2013-09-21 13:42:00
9:54 AM,66.9,61.0,81,29.92,10.0,WSW,3.5,-,N/A,,Mostly Cloudy,240,2013-09-21 13:54:00
10:54 AM,73.9,55.9,53,29.89,10.0,Variable,6.9,-,N/A,,Scattered Clouds,0,2013-09-21 14:54:00
11:54 AM,75.9,54.0,46,29.87,10.0,South,12.7,-,N/A,,Scattered Clouds,190,2013-09-21 15:54:00
12:54 PM,78.1,54.0,43,29.84,10.0,South,8.1,23.0,N/A,,Scattered Clouds,180,2013-09-21 16:54:00
1:54 PM,79.0,54.0,42,29.81,10.0,South,16.1,-,N/A,,Mostly Cloudy,180,2013-09-21 17:54:00
2:54 PM,79.0,55.9,45,29.79,10.0,South,15.0,-,N/A,,Mostly Cloudy,170,2013-09-21 18:54:00
3:54 PM,79.0,57.0,47,29.76,10.0,South,13.8,20.7,N/A,,Mostly Cloudy,180,2013-09-21 19:54:00
4:54 PM,77.0,57.0,50,29.75,10.0,South,13.8,-,N/A,,Overcast,170,2013-09-21 20:54:00
5:54 PM,75.0,61.0,62,29.74,10.0,South,13.8,-,N/A,,Overcast,170,2013-09-21 21:54:00
6:54 PM,73.9,63.0,68,29.72,10.0,South,11.5,-,N/A,,Overcast,170,2013-09-21 22:54:00
7:50 PM,73.4,64.4,73,29.72,4.0,SSW,9.2,-,0.00,Rain,Light Rain,200,2013-09-21 23:50:00
7:54 PM,73.0,64.9,76,29.72,4.0,SSW,8.1,-,0.00,Rain,Light Rain,200,2013-09-21 23:54:00
8:01 PM,73.4,66.2,78,29.72,7.0,South,8.1,-,0.01,Rain,Light Rain,190,2013-09-22 00:01:00
8:32 PM,71.6,66.2,83,29.71,5.0,South,6.9,-,0.02,Rain,Light Rain,190,2013-09-22 00:32:00
8:54 PM,71.1,66.0,84,29.70,6.0,SSE,6.9,-,0.03,Rain,Light Rain,160,2013-09-22 00:54:00
8:59 PM,71.6,66.2,83,29.70,3.0,South,8.1,-,0.01,Rain,Light Rain,170,2013-09-22 00:59:00
9:11 PM,71.6,66.2,83,29.70,2.5,South,9.2,19.6,0.08,Rain,Heavy Rain,180,2013-09-22 01:11:00
9:18 PM,71.6,66.2,83,29.71,1.5,South,12.7,-,0.13,Rain,Heavy Rain,180,2013-09-22 01:18:00
9:26 PM,69.8,66.2,88,29.72,3.0,SW,17.3,24.2,0.26,Rain,Heavy Rain,220,2013-09-22 01:26:00
9:47 PM,69.8,66.2,88,29.72,5.0,WSW,11.5,-,0.38,Rain,Rain,240,2013-09-22 01:47:00
9:54 PM,70.0,66.0,87,29.71,6.0,WSW,9.2,-,0.39,Rain,Rain,240,2013-09-22 01:54:00
10:33 PM,69.8,66.2,88,29.71,5.0,SW,10.4,-,0.06,Rain,Rain,230,2013-09-22 02:33:00
10:54 PM,69.1,66.0,90,29.70,5.0,WSW,10.4,-,0.09,Rain,Rain,250,2013-09-22 02:54:00
11:43 PM,66.2,62.6,88,29.69,4.0,WNW,9.2,-,0.11,Rain,Heavy Rain,290,2013-09-22 03:43:00
11:54 PM,66.9,63.0,87,29.70,3.0,NW,6.9,-,0.14,Rain,Rain,320,2013-09-22 03:54:00